This is the latest recevied weather packets stored in our database for station/object G1OCN-WX. If no packets are shown the sender has not sent any weather packets the latest 1 day(s).
| Time | Temp. | Humidity | Pressure | Rain* | Wind** | Luminosity | Snow |
|---|---|---|---|---|---|---|---|
| 1778041420 | 9.44° C | 82% | 1012.5 hPa | 0 mm | 5.36 m/s, 66° | - | - |
| 1778041360 | 9.44° C | 82% | 1012.4 hPa | 0 mm | 5.81 m/s, 63° | - | - |
| 1778041300 | 9.44° C | 82% | 1012.4 hPa | 0 mm | 6.26 m/s, 68° | - | - |
| 1778041240 | 9.44° C | 82% | 1012.4 hPa | 0 mm | 5.81 m/s, 63° | - | - |
| 1778041180 | 9.44° C | 82% | 1012.5 hPa | 0 mm | 6.26 m/s, 68° | - | - |
| 1778041120 | 9.44° C | 82% | 1012.4 hPa | 0 mm | 6.26 m/s, 65° | - | - |
| 1778041059 | 9.44° C | 82% | 1012.4 hPa | 0 mm | 6.26 m/s, 62° | - | - |
| 1778040999 | 9.44° C | 82% | 1012.4 hPa | 0 mm | 6.26 m/s, 71° | - | - |
| 1778040939 | 9.44° C | 82% | 1012.4 hPa | 0 mm | 5.36 m/s, 63° | - | - |
| 1778040879 | 9.44° C | 82% | 1012.4 hPa | 0 mm | 5.81 m/s, 65° | - | - |
| 1778040819 | 9.44° C | 82% | 1012.4 hPa | 0 mm | 5.81 m/s, 66° | - | - |
| 1778040759 | 9.44° C | 82% | 1012.4 hPa | 0 mm | 6.26 m/s, 64° | - | - |
| 1778040699 | 9.44° C | 82% | 1012.4 hPa | 0 mm | 5.36 m/s, 67° | - | - |
| 1778040639 | 9.44° C | 82% | 1012.4 hPa | 0 mm | 5.36 m/s, 63° | - | - |
| 1778040579 | 9.44° C | 82% | 1012.4 hPa | 0 mm | 5.81 m/s, 61° | - | - |
| 1778040519 | 9.44° C | 82% | 1012.4 hPa | 0 mm | 5.36 m/s, 65° | - | - |
| 1778040459 | 9.44° C | 82% | 1012.4 hPa | 0 mm | 5.36 m/s, 62° | - | - |
| 1778040399 | 9.44° C | 81% | 1012.4 hPa | 0 mm | 5.36 m/s, 69° | - | - |
| 1778040339 | 9.44° C | 81% | 1012.4 hPa | 0 mm | 5.36 m/s, 62° | - | - |
| 1778040278 | 9.44° C | 81% | 1012.3 hPa | 0 mm | 6.26 m/s, 68° | - | - |
| 1778040218 | 9.44° C | 81% | 1012.4 hPa | 0 mm | 5.81 m/s, 72° | - | - |
| 1778040158 | 9.44° C | 81% | 1012.4 hPa | 0 mm | 5.81 m/s, 64° | - | - |
| 1778040098 | 9.44° C | 81% | 1012.3 hPa | 0 mm | 6.71 m/s, 71° | - | - |
| 1778040038 | 9.44° C | 81% | 1012.3 hPa | 0 mm | 6.71 m/s, 68° | - | - |
| 1778039978 | 9.44° C | 81% | 1012.3 hPa | 0 mm | 6.26 m/s, 63° | - | - |
* Rain latest hour (hover to see other rain measurements)
** Current wind speed in m/s (hover to see current wind gust speed)